User: anonymous   Login
Location: Cicognara
(44.9500°N, 10.4667°E)
Time: 23:28:34
(UTC+00:00)
Language:

Cosmos 1953 - Orbit

View from above orbital plane
View from above orbital plane
View from above satellite
View from above satellite

Ground track
Ground track

The orbit data is extracted from the following two-line orbital elements,

1 19210U 88050A   21268.09916174  .00000989  00000-0  65138-4 0  9993
2 19210  82.5174 318.6829 0012590 335.8094  24.2540 15.06390684791600
Epoch (UTC): 25 September 2021 02:22:47
Eccentricity: 0.0012590
inclination: 82.5174°
perigee height: 538 km
apogee height: 556 km
right ascension of ascending node: 318.6829°
argument of perigee: 335.8094°
revolutions per day: 15.06390684
mean anomaly at epoch: 24.2540°
orbit number at epoch: 79160

The dashed part of the orbit path shows where the satellite is in the earth's shadow,  

DLR